START_TIME,STEP,MOV.,AL01,t_acc.,AL02,t_acc.,E37,t_acc.,H21,t_acc.
1979-07-05 09:00:35.050 ,0,0,0.,24.0,1.,24.0,1.,24.0,0.,24.0
1979-07-05 09:00:59.050 ,0,1,0.,24.0,0.,24.0,0.,24.0,0.,24.0
1979-07-05 09:01:23.050 ,0,0,0.,24.0,0.,24.0,0.,24.0,0.,24.0
1979-07-05 09:01:47.050 ,1,1,0.,24.0,0.,24.0,0.,24.0,0.,24.0
1979-07-05 09:02:11.050 ,1,0,0.,24.0,0.,24.0,1.,24.0,0.,24.0
1979-07-05 09:02:35.050 ,2,1,1.,24.0,0.,24.0,0.,24.0,0.,24.0
1979-07-05 09:02:59.050 ,2,0,0.,24.0,0.,24.0,0.,24.0,0.,24.0
1979-07-05 09:03:23.050 ,3,1,0.,24.0,0.,24.0,1.,24.0,0.,24.0
1979-07-05 09:03:47.050 ,3,0,0.,24.0,0.,24.0,0.,24.0,0.,24.0
1979-07-05 09:04:11.050 ,4,1,0.,24.0,0.,24.0,0.,24.0,0.,24.0
1979-07-05 09:04:35.050 ,4,0,0.,24.0,0.,24.0,0.,24.0,0.,24.0
1979-07-05 09:04:59.050 ,5,1,0.,24.0,0.,24.0,0.,24.0,0.,24.0
1979-07-05 09:05:23.050 ,5,0,0.,24.0,0.,24.0,1.,24.0,0.,24.0
1979-07-05 09:05:47.050 ,6,1,0.,24.0,0.,24.0,0.,24.0,0.,24.0
1979-07-05 09:06:11.050 ,6,0,0.,24.0,0.,24.0,0.,24.0,0.,24.0
1979-07-05 09:06:35.050 ,7,0,5.,24.0,0.,24.0,0.,24.0,0.,24.0
1979-07-05 09:06:59.050 ,7,0,30.,24.0,0.,24.0,0.,24.0,0.,24.0
1979-07-05 09:07:23.050 ,5,1,13.,24.0,0.,24.0,1.,24.0,0.,24.0
1979-07-05 09:07:47.050 ,1,1,0.,24.0,0.,24.0,0.,24.0,0.,24.0
1979-07-05 09:08:11.050 ,2,1,1.,24.0,0.,24.0,0.,24.0,0.,24.0
1979-07-05 09:08:35.050 ,6,1,0.,24.0,0.,24.0,0.,24.0,0.,24.0
1979-07-05 09:08:59.050 ,5,1,13.,24.0,0.,24.0,0.,24.0,0.,24.0
1979-07-05 09:09:23.050 ,1,1,0.,24.0,0.,24.0,1.,24.0,0.,24.0
1979-07-05 09:09:47.050 ,2,1,0.,24.0,0.,24.0,0.,24.0,0.,24.0
1979-07-05 09:10:11.050 ,6,1,0.,24.0,0.,24.0,0.,24.0,0.,24.0
1979-07-05 09:10:35.050 ,5,1,11.,24.0,0.,24.0,0.,24.0,0.,24.0
1979-07-05 09:10:59.050 ,1,1,0.,24.0,0.,24.0,0.,24.0,0.,24.0
1979-07-05 09:11:23.050 ,2,1,0.,24.0,0.,24.0,0.,24.0,0.,24.0
1979-07-05 09:11:47.050 ,0,0,0.,24.0,1.,24.0,0.,24.0,0.,24.0
1979-07-05 09:12:11.050 ,5,1,13.,24.0,0.,24.0,0.,24.0,0.,24.0
1979-07-05 09:12:35.050 ,1,1,0.,24.0,1.,24.0,2.,24.0,0.,24.0
1979-07-05 09:12:59.050 ,2,1,0.,24.0,0.,24.0,0.,24.0,0.,24.0
1979-07-05 09:13:23.050 ,6,1,0.,24.0,0.,24.0,0.,24.0,0.,24.0
1979-07-05 09:13:47.050 ,5,1,15.,24.0,0.,24.0,0.,24.0,0.,24.0
1979-07-05 09:14:11.050 ,1,1,1.,24.0,0.,24.0,0.,24.0,0.,24.0
1979-07-05 09:14:35.050 ,2,1,0.,24.0,2.,24.0,1.,24.0,0.,24.0
1979-07-05 09:14:59.050 ,6,1,1.,24.0,0.,24.0,0.,24.0,0.,24.0
1979-07-05 09:15:23.050 ,5,1,14.,24.0,0.,24.0,0.,24.0,0.,24.0
1979-07-05 09:15:47.050 ,1,1,0.,24.0,0.,24.0,0.,24.0,0.,24.0
1979-07-05 09:16:11.050 ,2,1,0.,24.0,0.,24.0,0.,24.0,0.,24.0
1979-07-05 09:16:35.050 ,6,1,0.,24.0,0.,24.0,1.,24.0,0.,24.0
1979-07-05 09:16:59.050 ,5,1,17.,24.0,0.,24.0,1.,24.0,0.,24.0
1979-07-05 09:17:23.050 ,1,1,0.,24.0,0.,24.0,0.,24.0,0.,24.0
1979-07-05 09:17:47.050 ,0,0,1.,24.0,0.,24.0,0.,24.0,0.,24.0
1979-07-05 09:18:11.050 ,0,0,0.,24.0,0.,24.0,1.,24.0,0.,24.0
1979-07-05 09:18:35.050 ,5,1,12.,24.0,1.,24.0,0.,24.0,0.,24.0
1979-07-05 09:18:59.050 ,5,0,2.,24.0,0.,24.0,0.,24.0,0.,24.0
1979-07-05 09:19:23.050 ,4,1,0.,24.0,0.,24.0,0.,24.0,0.,24.0
1979-07-05 09:19:47.050 ,4,0,0.,24.0,0.,24.0,0.,24.0,0.,24.0
1979-07-05 09:20:11.050 ,3,1,0.,24.0,0.,24.0,0.,24.0,0.,24.0
1979-07-05 09:20:35.050 ,3,0,0.,24.0,0.,24.0,1.,24.0,0.,24.0
1979-07-05 09:20:59.050 ,2,1,0.,24.0,0.,24.0,0.,24.0,0.,24.0
1979-07-05 09:21:23.050 ,2,0,0.,24.0,0.,24.0,0.,24.0,0.,24.0
1979-07-05 09:21:47.050 ,1,1,1.,24.0,0.,24.0,1.,24.0,0.,24.0
1979-07-05 09:22:11.050 ,1,0,0.,24.0,0.,24.0,0.,24.0,0.,24.0
1979-07-05 09:22:35.050 ,0,1,0.,24.0,0.,24.0,0.,24.0,0.,24.0
1979-07-05 09:22:59.050 ,0,0,0.,24.0,0.,24.0,0.,24.0,0.,24.0
1979-07-05 09:23:23.050 ,0,1,0.,24.0,0.,24.0,1.,24.0,0.,24.0
1979-07-05 09:23:47.050 ,0,0,0.,24.0,0.,24.0,0.,24.0,0.,24.0
1979-07-05 09:24:11.050 ,1,1,0.,24.0,0.,24.0,1.,24.0,0.,24.0
1979-07-05 09:24:35.050 ,1,0,0.,24.0,0.,24.0,0.,24.0,0.,24.0
1979-07-05 09:24:59.050 ,2,1,0.,24.0,0.,24.0,0.,24.0,0.,24.0
1979-07-05 09:25:23.050 ,2,0,0.,24.0,1.,24.0,0.,24.0,0.,24.0
1979-07-05 09:25:47.050 ,3,1,0.,24.0,0.,24.0,1.,24.0,0.,24.0
1979-07-05 09:26:11.050 ,3,0,0.,24.0,0.,24.0,0.,24.0,0.,24.0
1979-07-05 09:26:35.050 ,4,1,0.,24.0,0.,24.0,0.,24.0,0.,24.0
1979-07-05 09:26:59.050 ,4,0,0.,24.0,0.,24.0,1.,24.0,0.,24.0
1979-07-05 09:27:23.050 ,5,1,0.,24.0,0.,24.0,0.,24.0,0.,24.0
1979-07-05 09:27:47.050 ,5,0,0.,24.0,1.,24.0,0.,24.0,0.,24.0
1979-07-05 09:28:11.050 ,6,1,0.,24.0,0.,24.0,0.,24.0,0.,24.0
1979-07-05 09:28:35.050 ,6,0,0.,24.0,0.,24.0,0.,24.0,0.,24.0
1979-07-05 09:28:59.050 ,7,1,7.,24.0,0.,24.0,0.,24.0,0.,24.0
1979-07-05 09:29:23.050 ,7,0,31.,24.0,0.,24.0,0.,24.0,0.,24.0
1979-07-05 09:29:47.050 ,7,1,43.,24.0,1.,24.0,0.,24.0,0.,24.0
1979-07-05 09:30:11.050 ,7,0,35.,24.0,0.,24.0,0.,24.0,0.,24.0
1979-07-05 09:30:35.050 ,6,1,21.,24.0,0.,24.0,0.,24.0,0.,24.0
1979-07-05 09:30:59.050 ,6,0,0.,24.0,0.,24.0,1.,24.0,0.,24.0
1979-07-05 09:31:23.050 ,5,1,0.,24.0,0.,24.0,0.,24.0,0.,24.0
1979-07-05 09:31:47.050 ,5,0,0.,24.0,0.,24.0,0.,24.0,0.,24.0
1979-07-05 09:32:11.050 ,4,1,0.,24.0,0.,24.0,0.,24.0,0.,24.0
1979-07-05 09:32:35.050 ,4,0,0.,24.0,0.,24.0,0.,24.0,0.,24.0
1979-07-05 09:32:59.050 ,3,1,0.,24.0,0.,24.0,0.,24.0,0.,24.0
1979-07-05 09:33:23.050 ,3,0,0.,24.0,0.,24.0,0.,24.0,0.,24.0
1979-07-05 09:33:47.050 ,2,1,1.,24.0,0.,24.0,0.,24.0,0.,24.0
1979-07-05 09:34:11.040 ,2,0,0.,24.0,0.,24.0,0.,24.0,0.,24.0
1979-07-05 09:34:35.050 ,1,1,0.,24.0,0.,24.0,0.,24.0,0.,24.0
1979-07-05 09:34:59.050 ,1,0,0.,24.0,0.,24.0,1.,24.0,0.,24.0
1979-07-05 09:35:23.050 ,0,1,0.,24.0,0.,24.0,1.,24.0,0.,24.0
1979-07-05 09:35:47.050 ,0,0,0.,24.0,0.,24.0,0.,24.0,0.,24.0
1979-07-05 09:36:11.050 ,0,1,1.,24.0,0.,24.0,1.,24.0,0.,24.0
1979-07-05 09:36:35.050 ,0,0,0.,24.0,0.,24.0,0.,24.0,0.,24.0
1979-07-05 09:36:59.050 ,1,1,0.,24.0,0.,24.0,0.,24.0,0.,24.0
1979-07-05 09:37:23.050 ,1,0,0.,24.0,0.,24.0,1.,24.0,0.,24.0
1979-07-05 09:37:47.050 ,2,1,0.,24.0,0.,24.0,1.,24.0,0.,24.0
1979-07-05 09:38:11.050 ,2,0,0.,24.0,0.,24.0,0.,24.0,0.,24.0
1979-07-05 09:38:35.050 ,3,1,0.,24.0,0.,24.0,0.,24.0,0.,24.0
1979-07-05 09:38:59.050 ,3,0,0.,24.0,0.,24.0,0.,24.0,0.,24.0
1979-07-05 09:39:23.050 ,4,1,0.,24.0,0.,24.0,0.,24.0,0.,24.0
1979-07-05 09:39:47.050 ,4,0,0.,24.0,0.,24.0,1.,24.0,0.,24.0
1979-07-05 09:40:11.050 ,5,1,0.,24.0,0.,24.0,0.,24.0,0.,24.0
1979-07-05 09:40:35.050 ,5,0,1.,24.0,0.,24.0,0.,24.0,0.,24.0
1979-07-05 09:40:59.050 ,6,1,0.,24.0,0.,24.0,0.,24.0,0.,24.0
1979-07-05 09:41:23.050 ,6,0,0.,24.0,0.,24.0,0.,24.0,0.,24.0
1979-07-05 09:41:47.050 ,7,1,4.,24.0,0.,24.0,0.,24.0,0.,24.0
1979-07-05 09:42:11.050 ,7,0,32.,24.0,0.,24.0,0.,24.0,0.,24.0
1979-07-05 09:42:35.050 ,7,1,30.,24.0,0.,24.0,0.,24.0,0.,24.0
1979-07-05 09:42:59.050 ,7,0,34.,24.0,0.,24.0,0.,24.0,0.,24.0
1979-07-05 09:43:23.050 ,6,1,21.,24.0,0.,24.0,0.,24.0,0.,24.0
1979-07-05 09:43:47.050 ,6,0,0.,24.0,0.,24.0,0.,24.0,0.,24.0
1979-07-05 09:44:11.050 ,5,1,0.,24.0,0.,24.0,0.,24.0,0.,24.0
1979-07-05 09:44:35.050 ,5,0,0.,24.0,0.,24.0,0.,24.0,0.,24.0
1979-07-05 09:44:59.050 ,4,1,1.,24.0,0.,24.0,0.,24.0,0.,24.0
1979-07-05 09:45:23.050 ,4,0,0.,24.0,0.,24.0,1.,24.0,0.,24.0
1979-07-05 09:45:47.050 ,3,1,0.,24.0,0.,24.0,1.,24.0,0.,24.0
1979-07-05 09:46:11.050 ,3,0,0.,24.0,1.,24.0,1.,24.0,0.,24.0
1979-07-05 09:46:35.050 ,2,1,1.,24.0,0.,24.0,1.,24.0,0.,24.0
1979-07-05 09:46:59.050 ,2,0,0.,24.0,0.,24.0,0.,24.0,0.,24.0
1979-07-05 09:47:23.050 ,1,1,0.,24.0,0.,24.0,0.,24.0,0.,24.0
1979-07-05 09:47:47.050 ,1,0,0.,24.0,0.,24.0,0.,24.0,0.,24.0
1979-07-05 09:48:11.050 ,0,1,0.,24.0,0.,24.0,1.,24.0,0.,24.0
1979-07-05 09:48:35.050 ,0,0,0.,24.0,0.,24.0,1.,24.0,0.,24.0
1979-07-05 09:48:59.050 ,0,1,1.,24.0,0.,24.0,0.,24.0,0.,24.0
1979-07-05 09:49:23.050 ,0,0,0.,24.0,1.,24.0,0.,24.0,0.,24.0
1979-07-05 09:49:47.050 ,1,1,0.,24.0,0.,24.0,0.,24.0,0.,24.0
1979-07-05 09:50:11.050 ,1,0,0.,24.0,0.,24.0,0.,24.0,0.,24.0
1979-07-05 09:50:35.050 ,2,1,0.,24.0,0.,24.0,0.,24.0,0.,24.0
1979-07-05 09:50:59.050 ,2,0,0.,24.0,0.,24.0,0.,24.0,0.,24.0
1979-07-05 09:51:23.050 ,3,1,0.,24.0,0.,24.0,0.,24.0,0.,24.0
1979-07-05 09:51:47.050 ,3,0,0.,24.0,0.,24.0,0.,24.0,0.,24.0
1979-07-05 09:52:11.050 ,4,1,0.,24.0,0.,24.0,1.,24.0,0.,24.0
1979-07-05 09:52:35.050 ,4,0,0.,24.0,0.,24.0,0.,24.0,0.,24.0
1979-07-05 09:52:59.050 ,5,1,0.,24.0,1.,24.0,0.,24.0,0.,24.0
1979-07-05 09:53:23.050 ,5,0,0.,24.0,0.,24.0,0.,24.0,0.,24.0
1979-07-05 09:53:47.050 ,6,1,0.,24.0,0.,24.0,0.,24.0,0.,24.0
1979-07-05 09:54:11.050 ,6,0,0.,24.0,0.,24.0,0.,24.0,0.,24.0
1979-07-05 09:54:35.050 ,7,0,10.,24.0,0.,24.0,1.,24.0,0.,24.0
1979-07-05 09:54:59.050 ,7,0,26.,24.0,0.,24.0,0.,24.0,0.,24.0
1979-07-05 09:55:23.040 ,5,1,12.,24.0,0.,24.0,2.,24.0,0.,24.0
1979-07-05 09:55:47.040 ,1,1,0.,24.0,0.,24.0,0.,24.0,0.,24.0
1979-07-05 09:56:11.040 ,2,1,0.,24.0,0.,24.0,0.,24.0,0.,24.0
1979-07-05 09:56:35.040 ,6,1,0.,24.0,0.,24.0,0.,24.0,0.,24.0
1979-07-05 09:56:59.040 ,5,1,24.,24.0,0.,24.0,0.,24.0,0.,24.0
1979-07-05 09:57:23.040 ,1,1,0.,24.0,0.,24.0,1.,24.0,0.,24.0
1979-07-05 09:57:47.040 ,2,1,0.,24.0,0.,24.0,0.,24.0,0.,24.0
1979-07-05 09:58:11.040 ,6,1,0.,24.0,0.,24.0,0.,24.0,0.,24.0
1979-07-05 09:58:35.040 ,5,1,21.,24.0,0.,24.0,0.,24.0,0.,24.0
1979-07-05 09:58:59.040 ,1,1,0.,24.0,1.,24.0,0.,24.0,0.,24.0
1979-07-05 09:59:23.040 ,2,1,1.,24.0,0.,24.0,0.,24.0,0.,24.0
1979-07-05 09:59:47.040 ,6,1,0.,24.0,0.,24.0,0.,24.0,0.,24.0
1979-07-05 10:00:11.040 ,5,1,18.,24.0,0.,24.0,0.,24.0,0.,24.0
1979-07-05 10:00:35.040 ,1,1,0.,24.0,1.,24.0,0.,24.0,0.,24.0
1979-07-05 10:00:59.040 ,2,1,0.,24.0,0.,24.0,0.,24.0,0.,24.0
1979-07-05 10:01:23.040 ,6,1,0.,24.0,1.,24.0,0.,24.0,0.,24.0
1979-07-05 10:01:47.040 ,5,1,18.,24.0,0.,24.0,0.,24.0,0.,24.0
1979-07-05 10:02:11.040 ,1,1,0.,24.0,0.,24.0,0.,24.0,0.,24.0
1979-07-05 10:02:35.040 ,2,1,0.,24.0,0.,24.0,0.,24.0,0.,24.0
1979-07-05 10:02:59.040 ,6,1,0.,24.0,1.,24.0,0.,24.0,0.,24.0
1979-07-05 10:03:23.040 ,5,1,11.,24.0,0.,24.0,0.,24.0,0.,24.0
1979-07-05 10:03:47.040 ,1,1,0.,24.0,0.,24.0,0.,24.0,0.,24.0
1979-07-05 10:04:11.040 ,2,1,0.,24.0,0.,24.0,0.,24.0,0.,24.0
1979-07-05 10:04:35.040 ,6,1,0.,24.0,0.,24.0,1.,24.0,0.,24.0
1979-07-05 10:04:59.040 ,5,1,16.,24.0,0.,24.0,0.,24.0,0.,24.0
1979-07-05 10:05:23.040 ,1,1,0.,24.0,0.,24.0,0.,24.0,0.,24.0
1979-07-05 10:05:47.040 ,0,0,0.,24.0,0.,24.0,1.,24.0,0.,24.0
1979-07-05 10:06:11.040 ,0,0,0.,24.0,0.,24.0,0.,24.0,0.,24.0
1979-07-05 10:06:35.040 ,5,1,18.,24.0,0.,24.0,0.,24.0,0.,24.0
1979-07-05 10:06:59.040 ,5,0,0.,24.0,0.,24.0,0.,24.0,0.,24.0
1979-07-05 10:07:23.040 ,4,1,0.,24.0,1.,24.0,1.,24.0,0.,24.0
1979-07-05 10:07:47.040 ,4,0,0.,24.0,0.,24.0,0.,24.0,0.,24.0
1979-07-05 10:08:11.040 ,3,1,0.,24.0,0.,24.0,0.,24.0,0.,24.0
1979-07-05 10:08:35.040 ,3,0,0.,24.0,0.,24.0,1.,24.0,0.,24.0
1979-07-05 10:08:59.040 ,2,1,0.,24.0,0.,24.0,0.,24.0,0.,24.0
1979-07-05 10:09:23.040 ,2,0,0.,24.0,0.,24.0,0.,24.0,0.,24.0
1979-07-05 10:09:47.040 ,1,1,0.,24.0,0.,24.0,0.,24.0,0.,24.0
1979-07-05 10:10:11.040 ,1,0,0.,24.0,0.,24.0,0.,24.0,0.,24.0
1979-07-05 10:10:35.040 ,0,1,0.,24.0,0.,24.0,0.,24.0,0.,24.0
1979-07-05 10:10:59.040 ,0,0,0.,24.0,0.,24.0,0.,24.0,0.,24.0
1979-07-05 10:11:23.040 ,0,1,0.,24.0,0.,24.0,0.,24.0,0.,24.0
1979-07-05 10:11:47.040 ,0,0,0.,24.0,0.,24.0,0.,24.0,0.,24.0
1979-07-05 10:12:11.040 ,1,1,0.,24.0,0.,24.0,0.,24.0,0.,24.0
1979-07-05 10:12:35.040 ,1,0,0.,24.0,0.,24.0,0.,24.0,0.,24.0
1979-07-05 10:12:59.040 ,2,1,0.,24.0,0.,24.0,0.,24.0,0.,24.0
1979-07-05 10:13:23.040 ,2,0,0.,24.0,0.,24.0,0.,24.0,0.,24.0
1979-07-05 10:13:47.040 ,3,1,0.,24.0,0.,24.0,0.,24.0,0.,24.0
1979-07-05 10:14:11.040 ,3,0,0.,24.0,0.,24.0,0.,24.0,0.,24.0
1979-07-05 10:14:35.040 ,4,1,0.,24.0,0.,24.0,0.,24.0,0.,24.0
1979-07-05 10:14:59.040 ,4,0,0.,24.0,0.,24.0,0.,24.0,0.,24.0
1979-07-05 10:15:23.040 ,5,1,1.,24.0,1.,24.0,1.,24.0,0.,24.0
1979-07-05 10:15:47.040 ,5,0,0.,24.0,0.,24.0,0.,24.0,0.,24.0
1979-07-05 10:16:11.040 ,6,1,0.,24.0,1.,24.0,0.,24.0,0.,24.0
1979-07-05 10:16:35.040 ,6,0,0.,24.0,0.,24.0,1.,24.0,0.,24.0
1979-07-05 10:16:59.040 ,7,1,3.,24.0,0.,24.0,0.,24.0,0.,24.0
1979-07-05 10:17:23.040 ,7,0,37.,24.0,0.,24.0,0.,24.0,0.,24.0
1979-07-05 10:17:47.040 ,7,1,34.,24.0,0.,24.0,0.,24.0,0.,24.0
1979-07-05 10:18:11.040 ,7,0,38.,24.0,0.,24.0,1.,24.0,0.,24.0
1979-07-05 10:18:35.040 ,6,1,19.,24.0,0.,24.0,0.,24.0,0.,24.0
1979-07-05 10:18:59.040 ,6,0,0.,24.0,0.,24.0,0.,24.0,0.,24.0
1979-07-05 10:19:23.040 ,5,1,0.,24.0,0.,24.0,1.,24.0,0.,24.0
1979-07-05 10:19:47.040 ,5,0,1.,24.0,0.,24.0,0.,24.0,0.,24.0
1979-07-05 10:20:11.040 ,4,1,0.,24.0,0.,24.0,0.,24.0,0.,24.0
1979-07-05 10:20:35.040 ,4,0,0.,24.0,0.,24.0,0.,24.0,0.,24.0
1979-07-05 10:20:59.040 ,3,1,0.,24.0,0.,24.0,0.,24.0,0.,24.0
1979-07-05 10:21:23.040 ,3,0,0.,24.0,0.,24.0,0.,24.0,0.,24.0
1979-07-05 10:21:47.040 ,2,1,0.,24.0,0.,24.0,0.,24.0,0.,24.0
1979-07-05 10:22:11.040 ,2,0,0.,24.0,0.,24.0,0.,24.0,0.,24.0
1979-07-05 10:22:35.040 ,1,1,0.,24.0,0.,24.0,0.,24.0,0.,24.0
1979-07-05 10:22:59.040 ,1,0,0.,24.0,0.,24.0,0.,24.0,0.,24.0
1979-07-05 10:23:23.040 ,0,1,0.,24.0,0.,24.0,2.,24.0,0.,24.0
1979-07-05 10:23:47.040 ,0,0,0.,24.0,0.,24.0,0.,24.0,0.,24.0
1979-07-05 10:24:11.040 ,0,1,0.,24.0,0.,24.0,0.,24.0,0.,24.0
1979-07-05 10:24:35.040 ,0,0,1.,24.0,0.,24.0,0.,24.0,0.,24.0
1979-07-05 10:24:59.040 ,1,1,0.,24.0,0.,24.0,0.,24.0,0.,24.0
1979-07-05 10:25:23.040 ,1,0,0.,24.0,0.,24.0,0.,24.0,0.,24.0
1979-07-05 10:25:47.040 ,2,1,0.,24.0,0.,24.0,0.,24.0,0.,24.0
1979-07-05 10:26:11.040 ,2,0,0.,24.0,0.,24.0,0.,24.0,0.,24.0
1979-07-05 10:26:35.040 ,3,1,0.,24.0,0.,24.0,0.,24.0,0.,24.0
1979-07-05 10:26:59.040 ,3,0,0.,24.0,0.,24.0,0.,24.0,0.,24.0
1979-07-05 10:27:23.040 ,4,1,0.,24.0,0.,24.0,1.,24.0,0.,24.0
1979-07-05 10:27:47.040 ,4,0,0.,24.0,1.,24.0,0.,24.0,0.,24.0
1979-07-05 10:28:11.040 ,5,1,0.,24.0,0.,24.0,0.,24.0,0.,24.0
1979-07-05 10:28:35.040 ,5,0,0.,24.0,0.,24.0,0.,24.0,0.,24.0
1979-07-05 10:28:59.040 ,6,1,0.,24.0,0.,24.0,0.,24.0,0.,24.0
1979-07-05 10:29:23.040 ,6,0,0.,24.0,0.,24.0,1.,24.0,0.,24.0
1979-07-05 10:29:47.040 ,7,1,9.,24.0,0.,24.0,0.,24.0,0.,24.0
1979-07-05 10:30:11.040 ,7,0,26.,24.0,0.,24.0,0.,24.0,0.,24.0
1979-07-05 10:30:35.040 ,7,1,44.,24.0,0.,24.0,0.,24.0,0.,24.0
1979-07-05 10:30:59.040 ,7,0,35.,24.0,0.,24.0,0.,24.0,0.,24.0
1979-07-05 10:31:23.040 ,6,1,16.,24.0,0.,24.0,0.,24.0,0.,24.0
1979-07-05 10:31:47.040 ,6,0,0.,24.0,0.,24.0,0.,24.0,0.,24.0
1979-07-05 10:32:11.040 ,5,1,0.,24.0,0.,24.0,0.,24.0,0.,24.0
1979-07-05 10:32:35.040 ,5,0,0.,24.0,0.,24.0,1.,24.0,0.,24.0
1979-07-05 10:32:59.040 ,4,1,0.,24.0,0.,24.0,0.,24.0,0.,24.0
1979-07-05 10:33:23.040 ,4,0,0.,24.0,0.,24.0,0.,24.0,0.,24.0
1979-07-05 10:33:47.040 ,3,1,0.,24.0,0.,24.0,0.,24.0,0.,24.0
1979-07-05 10:34:11.040 ,3,0,0.,24.0,0.,24.0,1.,24.0,0.,24.0
1979-07-05 10:34:35.040 ,2,1,0.,24.0,0.,24.0,1.,24.0,0.,24.0
1979-07-05 10:34:59.040 ,2,0,0.,24.0,0.,24.0,0.,24.0,0.,24.0
1979-07-05 10:35:23.040 ,1,1,0.,24.0,0.,24.0,1.,24.0,0.,24.0
1979-07-05 10:35:47.040 ,1,0,0.,24.0,0.,24.0,0.,24.0,0.,24.0
1979-07-05 10:36:11.040 ,0,1,0.,24.0,0.,24.0,1.,24.0,0.,24.0
1979-07-05 10:36:35.040 ,0,0,0.,24.0,0.,24.0,0.,24.0,0.,24.0
1979-07-05 10:36:59.040 ,0,1,0.,24.0,0.,24.0,0.,24.0,0.,24.0
1979-07-05 10:37:23.040 ,0,0,0.,24.0,0.,24.0,0.,24.0,0.,24.0
1979-07-05 10:37:47.040 ,1,1,0.,24.0,0.,24.0,0.,24.0,0.,24.0
1979-07-05 10:38:11.040 ,1,0,0.,24.0,0.,24.0,0.,24.0,0.,24.0
1979-07-05 10:38:35.040 ,2,1,1.,24.0,0.,24.0,0.,24.0,0.,24.0
1979-07-05 10:38:59.040 ,2,0,0.,24.0,0.,24.0,0.,24.0,0.,24.0
1979-07-05 10:39:23.040 ,3,1,0.,24.0,0.,24.0,0.,24.0,0.,24.0
1979-07-05 10:39:47.040 ,3,0,0.,24.0,0.,24.0,0.,24.0,0.,24.0
1979-07-05 10:40:11.040 ,4,1,0.,24.0,1.,24.0,0.,24.0,0.,24.0
1979-07-05 10:40:35.040 ,4,0,0.,24.0,0.,24.0,0.,24.0,0.,24.0
1979-07-05 10:40:59.040 ,5,1,0.,24.0,0.,24.0,0.,24.0,0.,24.0
1979-07-05 10:41:23.040 ,5,0,0.,24.0,0.,24.0,0.,24.0,0.,24.0
1979-07-05 10:41:47.040 ,6,1,0.,24.0,0.,24.0,0.,24.0,0.,24.0
1979-07-05 10:42:11.040 ,6,0,0.,24.0,0.,24.0,0.,24.0,0.,24.0
1979-07-05 10:42:35.040 ,7,0,8.,24.0,0.,24.0,0.,24.0,0.,24.0
1979-07-05 10:42:59.040 ,7,0,25.,24.0,0.,24.0,0.,24.0,0.,24.0
1979-07-05 10:43:23.040 ,5,1,19.,24.0,0.,24.0,0.,24.0,0.,24.0
1979-07-05 10:43:47.040 ,1,1,0.,24.0,0.,24.0,0.,24.0,0.,24.0
1979-07-05 10:44:11.040 ,2,1,0.,24.0,0.,24.0,1.,24.0,0.,24.0
1979-07-05 10:44:35.040 ,6,1,0.,24.0,0.,24.0,0.,24.0,0.,24.0
1979-07-05 10:44:59.040 ,5,1,14.,24.0,0.,24.0,0.,24.0,0.,24.0
1979-07-05 10:45:23.040 ,1,1,0.,24.0,0.,24.0,1.,24.0,0.,24.0
1979-07-05 10:45:47.040 ,2,1,0.,24.0,0.,24.0,0.,24.0,0.,24.0
1979-07-05 10:46:11.040 ,6,1,0.,24.0,0.,24.0,0.,24.0,0.,24.0
1979-07-05 10:46:35.040 ,5,1,19.,24.0,0.,24.0,0.,24.0,0.,24.0
1979-07-05 10:46:59.040 ,1,1,0.,24.0,0.,24.0,0.,24.0,0.,24.0
1979-07-05 10:47:23.040 ,2,1,0.,24.0,0.,24.0,0.,24.0,0.,24.0
1979-07-05 10:47:47.040 ,6,1,0.,24.0,0.,24.0,0.,24.0,0.,24.0
1979-07-05 10:48:11.040 ,5,1,9.,24.0,0.,24.0,1.,24.0,0.,24.0
1979-07-05 10:48:35.040 ,1,1,0.,24.0,0.,24.0,0.,24.0,0.,24.0
1979-07-05 10:48:59.040 ,2,1,0.,24.0,0.,24.0,0.,24.0,0.,24.0
1979-07-05 10:49:23.040 ,6,1,0.,24.0,0.,24.0,0.,24.0,0.,24.0
1979-07-05 10:49:47.040 ,5,1,8.,24.0,0.,24.0,0.,24.0,0.,24.0
1979-07-05 10:50:11.040 ,1,1,0.,24.0,0.,24.0,0.,24.0,0.,24.0
1979-07-05 10:50:35.040 ,2,1,0.,24.0,0.,24.0,0.,24.0,0.,24.0
1979-07-05 10:50:59.040 ,6,1,0.,24.0,0.,24.0,0.,24.0,0.,24.0
1979-07-05 10:51:23.040 ,5,1,11.,24.0,0.,24.0,0.,24.0,0.,24.0
1979-07-05 10:51:47.040 ,1,1,0.,24.0,1.,24.0,0.,24.0,0.,24.0
1979-07-05 10:52:11.040 ,2,1,1.,24.0,0.,24.0,0.,24.0,0.,24.0
1979-07-05 10:52:35.040 ,6,1,0.,24.0,0.,24.0,1.,24.0,0.,24.0
1979-07-05 10:52:59.040 ,5,1,12.,24.0,0.,24.0,0.,24.0,0.,24.0
1979-07-05 10:53:23.040 ,1,1,0.,24.0,0.,24.0,0.,24.0,0.,24.0
1979-07-05 10:53:47.040 ,0,0,0.,24.0,1.,24.0,2.,24.0,0.,24.0
1979-07-05 10:54:11.040 ,0,0,0.,24.0,0.,24.0,0.,24.0,0.,24.0
1979-07-05 10:54:35.040 ,5,1,13.,24.0,0.,24.0,0.,24.0,0.,24.0
1979-07-05 10:54:59.040 ,5,0,0.,24.0,0.,24.0,0.,24.0,0.,24.0
1979-07-05 10:55:23.040 ,4,1,1.,24.0,0.,24.0,0.,24.0,0.,24.0
1979-07-05 10:55:47.040 ,4,0,0.,24.0,0.,24.0,0.,24.0,0.,24.0
1979-07-05 10:56:11.040 ,3,1,0.,24.0,0.,24.0,0.,24.0,0.,24.0
1979-07-05 10:56:35.040 ,3,0,1.,24.0,0.,24.0,0.,24.0,0.,24.0
1979-07-05 10:57:47.040 ,0,0,0.,24.0,0.,24.0,0.,24.0,0.,24.0
1979-07-05 10:58:11.040 ,0,0,0.,24.0,0.,24.0,0.,24.0,0.,24.0
1979-07-05 10:58:35.040 ,0,1,0.,24.0,0.,24.0,0.,24.0,0.,24.0
1979-07-05 10:58:59.040 ,0,0,0.,24.0,0.,24.0,0.,24.0,0.,24.0
1979-07-05 10:59:23.040 ,0,1,1.,24.0,0.,24.0,0.,24.0,0.,24.0
1979-07-05 10:59:47.040 ,0,0,0.,24.0,0.,24.0,0.,24.0,0.,24.0
1979-07-05 11:00:11.040 ,1,1,0.,24.0,0.,24.0,0.,24.0,0.,24.0
1979-07-05 11:00:35.040 ,1,0,1.,24.0,0.,24.0,0.,24.0,0.,24.0
1979-07-05 11:00:59.040 ,2,1,0.,24.0,0.,24.0,1.,24.0,0.,24.0
1979-07-05 11:01:23.040 ,2,0,0.,24.0,0.,24.0,2.,24.0,0.,24.0
1979-07-05 11:01:47.040 ,3,1,0.,24.0,0.,24.0,0.,24.0,0.,24.0
1979-07-05 11:02:11.040 ,3,0,0.,24.0,0.,24.0,0.,24.0,0.,24.0
1979-07-05 11:02:35.040 ,4,1,0.,24.0,0.,24.0,0.,24.0,0.,24.0
1979-07-05 11:02:59.040 ,4,0,0.,24.0,0.,24.0,0.,24.0,0.,24.0
1979-07-05 11:03:23.040 ,5,1,0.,24.0,0.,24.0,1.,24.0,0.,24.0
1979-07-05 11:03:47.040 ,5,0,0.,24.0,0.,24.0,0.,24.0,0.,24.0
1979-07-05 11:04:11.040 ,6,1,0.,24.0,0.,24.0,1.,24.0,0.,24.0
1979-07-05 11:04:35.040 ,6,0,1.,24.0,0.,24.0,0.,24.0,0.,24.0
1979-07-05 11:04:59.040 ,7,1,7.,24.0,0.,24.0,0.,24.0,0.,24.0
1979-07-05 11:05:23.040 ,7,0,41.,24.0,0.,24.0,0.,24.0,0.,24.0
1979-07-05 11:05:47.040 ,7,1,27.,24.0,0.,24.0,0.,24.0,0.,24.0
1979-07-05 11:06:11.040 ,7,0,35.,24.0,0.,24.0,1.,24.0,0.,24.0
1979-07-05 11:06:35.040 ,6,1,24.,24.0,0.,24.0,0.,24.0,0.,24.0
1979-07-05 11:06:59.040 ,6,0,0.,24.0,0.,24.0,0.,24.0,0.,24.0
1979-07-05 11:07:23.040 ,5,1,0.,24.0,0.,24.0,1.,24.0,0.,24.0
1979-07-05 11:07:47.040 ,5,0,0.,24.0,0.,24.0,0.,24.0,0.,24.0
1979-07-05 11:08:11.040 ,4,1,0.,24.0,0.,24.0,0.,24.0,0.,24.0
1979-07-05 11:08:35.040 ,4,0,0.,24.0,1.,24.0,1.,24.0,0.,24.0
1979-07-05 11:08:59.040 ,0,0,1.,24.0,0.,24.0,0.,24.0,0.,24.0
1979-07-05 11:09:23.040 ,0,0,0.,24.0,0.,24.0,0.,24.0,0.,24.0
1979-07-05 11:09:47.040 ,2,1,0.,24.0,0.,24.0,0.,24.0,0.,24.0
1979-07-05 11:10:11.040 ,2,0,0.,24.0,0.,24.0,0.,24.0,0.,24.0
1979-07-05 11:10:35.040 ,1,1,0.,24.0,0.,24.0,0.,24.0,0.,24.0
1979-07-05 11:10:59.040 ,1,0,0.,24.0,0.,24.0,0.,24.0,0.,24.0
1979-07-05 11:11:23.040 ,0,1,0.,24.0,0.,24.0,0.,24.0,0.,24.0
1979-07-05 11:11:47.040 ,0,0,0.,24.0,0.,24.0,0.,24.0,0.,24.0
1979-07-05 11:12:11.040 ,0,1,0.,24.0,0.,24.0,0.,24.0,0.,24.0
1979-07-05 11:12:35.040 ,0,0,0.,24.0,0.,24.0,0.,24.0,0.,24.0
1979-07-05 11:12:59.040 ,1,1,0.,24.0,0.,24.0,0.,24.0,0.,24.0
1979-07-05 11:13:23.040 ,1,0,0.,24.0,0.,24.0,0.,24.0,0.,24.0
1979-07-05 11:13:47.040 ,2,1,0.,24.0,0.,24.0,0.,24.0,0.,24.0
1979-07-05 11:14:11.040 ,2,0,0.,24.0,0.,24.0,0.,24.0,0.,24.0
1979-07-05 11:14:35.040 ,3,1,1.,24.0,0.,24.0,0.,24.0,0.,24.0
1979-07-05 11:14:59.040 ,3,0,0.,24.0,0.,24.0,1.,24.0,0.,24.0
1979-07-05 11:15:23.040 ,4,1,1.,24.0,0.,24.0,0.,24.0,0.,24.0
1979-07-05 11:15:47.040 ,4,0,0.,24.0,0.,24.0,0.,24.0,0.,24.0
1979-07-05 11:16:11.040 ,5,1,0.,24.0,0.,24.0,0.,24.0,0.,24.0
1979-07-05 11:16:35.040 ,5,0,0.,24.0,0.,24.0,1.,24.0,0.,24.0
1979-07-05 11:16:59.040 ,6,1,0.,24.0,0.,24.0,0.,24.0,0.,24.0
1979-07-05 11:17:23.040 ,6,0,0.,24.0,0.,24.0,0.,24.0,0.,24.0
1979-07-05 11:17:47.040 ,7,1,7.,24.0,0.,24.0,0.,24.0,0.,24.0
1979-07-05 11:18:11.040 ,7,0,33.,24.0,0.,24.0,1.,24.0,0.,24.0
1979-07-05 11:18:35.040 ,7,1,35.,24.0,0.,24.0,0.,24.0,0.,24.0
1979-07-05 11:18:59.040 ,7,0,42.,24.0,0.,24.0,0.,24.0,0.,24.0
1979-07-05 11:19:23.040 ,6,1,19.,24.0,0.,24.0,0.,24.0,0.,24.0
1979-07-05 11:19:47.040 ,6,0,0.,24.0,1.,24.0,0.,24.0,0.,24.0
1979-07-05 11:20:11.040 ,5,1,0.,24.0,0.,24.0,0.,24.0,0.,24.0
1979-07-05 11:20:35.040 ,5,0,0.,24.0,0.,24.0,0.,24.0,0.,24.0
1979-07-05 11:20:59.040 ,4,1,0.,24.0,0.,24.0,0.,24.0,0.,24.0
1979-07-05 11:21:23.040 ,4,0,0.,24.0,0.,24.0,1.,24.0,0.,24.0
1979-07-05 11:21:47.040 ,3,1,0.,24.0,0.,24.0,0.,24.0,0.,24.0
1979-07-05 11:22:11.040 ,3,0,0.,24.0,0.,24.0,0.,24.0,0.,24.0
1979-07-05 11:22:35.040 ,2,1,0.,24.0,0.,24.0,0.,24.0,0.,24.0
1979-07-05 11:22:59.040 ,2,0,0.,24.0,0.,24.0,0.,24.0,0.,24.0
1979-07-05 11:23:23.040 ,1,1,1.,24.0,0.,24.0,0.,24.0,0.,24.0
1979-07-05 11:23:47.040 ,1,0,0.,24.0,0.,24.0,1.,24.0,0.,24.0
1979-07-05 11:24:11.040 ,0,1,0.,24.0,0.,24.0,1.,24.0,0.,24.0
1979-07-05 11:24:35.040 ,0,0,0.,24.0,0.,24.0,0.,24.0,0.,24.0
1979-07-05 11:24:59.040 ,0,1,0.,24.0,0.,24.0,0.,24.0,0.,24.0
1979-07-05 11:25:23.040 ,0,0,0.,24.0,0.,24.0,0.,24.0,0.,24.0
1979-07-05 11:25:47.040 ,1,1,0.,24.0,0.,24.0,0.,24.0,0.,24.0
1979-07-05 11:26:11.040 ,1,0,0.,24.0,0.,24.0,1.,24.0,0.,24.0
1979-07-05 11:26:35.040 ,2,1,0.,24.0,0.,24.0,0.,24.0,0.,24.0
1979-07-05 11:26:59.040 ,2,0,0.,24.0,0.,24.0,1.,24.0,0.,24.0
1979-07-05 11:27:23.040 ,3,1,1.,24.0,0.,24.0,0.,24.0,0.,24.0
1979-07-05 11:27:47.040 ,3,0,1.,24.0,0.,24.0,0.,24.0,0.,24.0
1979-07-05 11:28:11.040 ,4,1,0.,24.0,0.,24.0,0.,24.0,0.,24.0
1979-07-05 11:28:35.040 ,4,0,0.,24.0,0.,24.0,0.,24.0,0.,24.0
1979-07-05 11:28:59.040 ,5,1,1.,24.0,0.,24.0,0.,24.0,0.,24.0
1979-07-05 11:29:23.040 ,5,0,0.,24.0,0.,24.0,1.,24.0,0.,24.0
1979-07-05 11:29:47.040 ,6,1,0.,24.0,0.,24.0,1.,24.0,0.,24.0
1979-07-05 11:30:11.040 ,6,0,1.,24.0,0.,24.0,0.,24.0,0.,24.0
1979-07-05 11:30:35.040 ,7,0,7.,24.0,0.,24.0,0.,24.0,0.,24.0
1979-07-05 11:30:59.040 ,7,0,31.,24.0,0.,24.0,0.,24.0,0.,24.0
1979-07-05 11:31:23.040 ,5,1,9.,24.0,0.,24.0,0.,24.0,0.,24.0
1979-07-05 11:31:47.040 ,1,1,0.,24.0,0.,24.0,0.,24.0,0.,24.0
1979-07-05 11:32:11.040 ,2,1,0.,24.0,0.,24.0,0.,24.0,0.,24.0
1979-07-05 11:32:35.040 ,6,1,0.,24.0,0.,24.0,0.,24.0,0.,24.0
1979-07-05 11:32:59.040 ,5,1,13.,24.0,0.,24.0,1.,24.0,0.,24.0
1979-07-05 11:33:23.040 ,1,1,1.,24.0,0.,24.0,0.,24.0,0.,24.0
1979-07-05 11:33:47.040 ,2,1,0.,24.0,0.,24.0,0.,24.0,0.,24.0
1979-07-05 11:34:11.040 ,6,1,0.,24.0,0.,24.0,1.,24.0,0.,24.0
1979-07-05 11:34:35.040 ,5,1,18.,24.0,0.,24.0,0.,24.0,0.,24.0
1979-07-05 11:34:59.040 ,1,1,0.,24.0,0.,24.0,0.,24.0,0.,24.0